Yellowknife, Northwest Territories

10:21 AM MDT on March 26, 2017 (GMT -0600)
Yellowknife

Weather History for 71936 - November, 2013

Change the Weather History Date:

Wednesday, November 6, 2013

  Actual Average Record
Temperature  
Mean Temperature 23 °F -  
Max Temperature 25 °F 10 °F - ()
Min Temperature 21 °F -5 °F - ()
Degree Days  
Heating Degree Days 42    
Moisture  
Dew Point 20 °F    
Average Humidity 86    
Maximum Humidity 93    
Minimum Humidity 78    
Precipitation  
Precipitation 0.02 in 0.03 in - ()
Sea Level Pressure  
Sea Level Pressure 29.97 in    
Wind  
Wind Speed 9 mph ()    
Max Wind Speed 16 mph    
Max Gust Speed 20 mph    
Visibility 14.3 miles    
Events Snow    
T = Trace of Precipitation, MM = Missing Value Source: Averaged Metar Reports

Daily Weather History Graph

Daily Weather History Graph

Search for Another Location

Airport or City:

Trip Planner

Search our weather history database for the weather conditions in past years. The results will help you decide how hot, cold, wet, or windy it might be!

Date:

Astronomy

Nov. 06, 2013 Rise Set
Actual Time 8:27 AM MST 4:14 PM MST
Civil Twilight 7:35 AM MST 5:05 PM MST
Nautical Twilight 6:41 AM MST 6:00 PM MST
Astronomical Twilight 5:48 AM MST 6:52 PM MST
Moon 12:17 PM MST (11/6) 6:54 PM MST (11/6)
Length of Visible Light 9h 29m
Length of Day
7h 46m
Waxing Crescent, 14% of the Moon is Illuminated
Nov 6
Waxing Crescent
Nov 9
First Quarter
Nov 17
Full
Nov 25
Last Quarter
Dec 2
New

Hourly Weather History & Observations

Time (MST) Temp. Windchill Dew Point Humidity Pressure Visibility Wind Dir Wind Speed Gust Speed Precip Events Conditions
12:00 AM 24.8 °F 13.4 °F 19.4 °F 80% 29.81 in 15.0 mi East 12.7 mph - N/A   Overcast
1:00 AM 23.0 °F 11.7 °F 19.4 °F 86% 29.81 in 15.0 mi East 11.5 mph - N/A   Overcast
2:00 AM 23.0 °F 11.1 °F 21.2 °F 93% 29.83 in 15.0 mi East 12.7 mph - N/A   Overcast
3:00 AM 24.8 °F 14.0 °F 21.2 °F 86% 29.84 in 15.0 mi East 11.5 mph - N/A   Overcast
4:00 AM 24.8 °F 14.0 °F 21.2 °F 86% 29.85 in 15.0 mi East 11.5 mph - N/A   Overcast
5:00 AM 24 °F - 21 °F 82% 29.86 in 15 mi East 9.2 mph - -   Overcast
5:00 AM 24.8 °F 16.1 °F 21.2 °F 86% 29.86 in 15.0 mi East 8.1 mph - N/A   Overcast
6:00 AM 24.8 °F 15.3 °F 21.2 °F 86% 29.87 in 15.0 mi East 9.2 mph - N/A   Overcast
7:00 AM 24.8 °F 16.9 °F 21.2 °F 86% 29.88 in 15.0 mi East 6.9 mph - N/A   Overcast
8:00 AM 24.8 °F 15.3 °F 21.2 °F 86% 29.90 in 15.0 mi ENE 9.2 mph - N/A   Overcast
9:00 AM 24.8 °F 16.1 °F 21.2 °F 86% 29.91 in 15.0 mi NE 8.1 mph - N/A   Overcast
10:00 AM 24.8 °F 17.9 °F 21.2 °F 86% 29.93 in 15.0 mi NNE 5.8 mph - N/A   Overcast
11:00 AM 25 °F - 22 °F 81% 29.95 in 15 mi North 6.9 mph - -   Overcast
11:00 AM 24.8 °F 16.9 °F 21.2 °F 86% 29.95 in 15.0 mi North 6.9 mph - N/A   Overcast
11:49 AM 24.8 °F 14.6 °F 21.2 °F 86% 29.96 in 15.0 mi NNW 10.4 mph - N/A Snow Light Snow Showers
12:00 PM 24.8 °F 16.9 °F 21.2 °F 86% 29.96 in 15.0 mi NNW 6.9 mph - N/A Snow Light Snow Showers
1:00 PM 24.8 °F 14.0 °F 21.2 °F 86% 29.98 in 15.0 mi NNW 11.5 mph - N/A Snow Light Snow
2:00 PM 24.8 °F 12.9 °F 21.2 °F 86% 30.00 in 15.0 mi North 13.8 mph - N/A Snow Light Snow
3:00 PM 23.0 °F 10.6 °F 19.4 °F 86% 30.02 in 15.0 mi NNW 13.8 mph - N/A Snow Light Snow
4:00 PM 23.0 °F 11.7 °F 19.4 °F 86% 30.04 in 15.0 mi NNW 11.5 mph - N/A Snow Light Snow
5:00 PM 22 °F - 18 °F 78% 30.06 in 15 mi NNW 13.8 mph - - Snow Light Snow
5:00 PM 21.2 °F 8.9 °F 17.6 °F 86% 30.06 in 15.0 mi NNW 12.7 mph 19.6 mph N/A Snow Light Snow
6:00 PM 21.2 °F 7.3 °F 15.8 °F 80% 30.08 in 15.0 mi NNW 16.1 mph - N/A Snow Light Snow
7:00 PM 21.2 °F 7.8 °F 15.8 °F 80% 30.09 in 15.0 mi NNW 15.0 mph - N/A Snow Light Snow
8:00 PM 21.2 °F 11.7 °F 15.8 °F 80% 30.10 in 10.0 mi North 8.1 mph - N/A Snow Light Snow
9:00 PM 21.2 °F 13.6 °F 17.6 °F 86% 30.10 in 4.0 mi NNW 5.8 mph - N/A Snow Light Snow
10:00 PM 21.2 °F 13.6 °F 19.4 °F 93% 30.11 in 12.0 mi West 5.8 mph - N/A Snow Light Snow
11:00 PM 21 °F - 20 °F 92% 30.11 in 15 mi West 5.8 mph - - Snow Light Snow
11:00 PM 21.2 °F 12.6 °F 19.4 °F 93% 30.11 in 15.0 mi West 6.9 mph - N/A Snow Light Snow